This is the latest recevied weather packets stored in our database for station/object KG0HG. If no packets are shown the sender has not sent any weather packets the latest 10 day(s).
| Time | Temp. | Humidity | Pressure | Rain* | Wind** | Luminosity | Snow |
|---|---|---|---|---|---|---|---|
| 1777827023 | 22.22° C | 46% | 1013 hPa | 0 mm | - | 53 W/m² | - |
| 1777826720 | 21.67° C | 46% | 1012.9 hPa | 0 mm | - | 239 W/m² | - |
| 1777826417 | 21.67° C | 46% | 1013 hPa | 0 mm | - | 48 W/m² | - |
| 1777826114 | 21.67° C | 47% | 1013 hPa | 0 mm | - | 47 W/m² | - |
| 1777825811 | 21.11° C | 47% | 1012.9 hPa | 0 mm | - | 47 W/m² | - |
| 1777825508 | 21.11° C | 46% | 1013 hPa | 0 mm | - | 46 W/m² | - |
| 1777825206 | 20.56° C | 48% | 1013.2 hPa | 0 mm | - | 99 W/m² | - |
| 1777824903 | 20.56° C | 48% | 1013.2 hPa | 0 mm | - | 98 W/m² | - |
| 1777824598 | 20° C | 48% | 1013 hPa | 0 mm | - | 105 W/m² | - |
| 1777824296 | 20° C | 49% | 1013.1 hPa | 0 mm | - | 240 W/m² | - |
| 1777823991 | 20° C | 50% | 1013.2 hPa | 0 mm | - | 57 W/m² | - |
| 1777823688 | 19.44° C | 50% | 1013.3 hPa | 0 mm | - | 581 W/m² | - |
| 1777823385 | 19.44° C | 49% | 1013.2 hPa | 0 mm | - | 44 W/m² | - |
| 1777823083 | 19.44° C | 50% | 1013.5 hPa | 0 mm | - | 43 W/m² | - |
| 1777822780 | 19.44° C | 50% | 1013.5 hPa | 0 mm | - | 51 W/m² | - |
| 1777822478 | 18.89° C | 50% | 1013.6 hPa | 0 mm | - | 39 W/m² | - |
| 1777822175 | 18.89° C | 51% | 1013.3 hPa | 0 mm | - | 39 W/m² | - |
| 1777821872 | 18.33° C | 50% | 1013.3 hPa | 0 mm | - | 39 W/m² | - |
| 1777821570 | 18.33° C | 49% | 1013.5 hPa | 0 mm | - | 85 W/m² | - |
| 1777821268 | 17.78° C | 49% | 1013.7 hPa | 0 mm | - | 42 W/m² | - |
| 1777820965 | 17.78° C | 50% | 1013.9 hPa | 0 mm | - | 40 W/m² | - |
| 1777820661 | 17.78° C | 49% | 1013.5 hPa | 0 mm | - | 42 W/m² | - |
| 1777820357 | 17.78° C | 50% | 1013.7 hPa | 0 mm | - | 54 W/m² | - |
| 1777820055 | 17.78° C | 50% | 1014.1 hPa | 0 mm | - | 42 W/m² | - |
| 1777819751 | 17.22° C | 50% | 1013.8 hPa | 0 mm | - | 43 W/m² | - |
* Rain latest hour (hover to see other rain measurements)
** Current wind speed in m/s (hover to see current wind gust speed)